Simultaneous Nadir Overpasses (SNOs) Predictions

Prediction of SNOs between GOES-15 and METOP-A Satellite Orbit:

Table of predicted SNOs for the next 14.0 days since TLE Epoch: 12/5/2014
Index Date Time (GOES-15) GOES-15 Lat,Lon METOP-A Lat,Lon Distance(km) Time Diff (sec)
1 12/05/2014 18:22:47 -0.18,-135.33 -0.59,-133.45 213.61 80
2 12/07/2014 06:44:27 0.16,-135.33 -0.44,-138.05 309.71 80
3 12/08/2014 06:21:08 0.17,-135.34 0.67,-133.05 260.51 80
4 12/09/2014 18:42:39 -0.14,-135.38 0.36,-137.61 253.92 80
5 12/10/2014 18:19:20 -0.15,-135.40 -0.75,-132.61 316.60 80
6 12/12/2014 06:41:00 0.13,-135.39 -0.26,-137.21 206.93 80
7 12/13/2014 06:17:41 0.14,-135.40 0.86,-132.22 362.85 80
8 12/14/2014 18:39:12 -0.12,-135.43 0.17,-136.77 152.77 80
9 12/15/2014 18:15:52 -0.14,-135.44 -0.95,-131.78 417.16 80
10 12/17/2014 06:37:32 0.12,-135.43 -0.10,-136.37 106.91 80
11 12/18/2014 06:14:12 0.13,-135.43 1.03,-131.37 462.07 80




NCC Satellite Simultaneous Nadir Overpasses (SNOs) Prediction Service
